Home   Weather   Abu Dhabi   Past weeks

Flag for United Arab Emirates Past Weather in Abu Dhabi, Abu Dhabi, United Arab Emirates — Yesterday and Last 2 Weeks

Now
90 °F

Sunny.


Feels Like: 91 °F
Forecast: 79 / 94 °F
Wind: 15 mph from Northwest

Location: Abu Dhabi Bateen Airport

Current Time: Apr 23, 2017 at 6:10:23 pm

Latest Report: Apr 23, 2017 at 5:00 pm


Visibility: 10 mi

Pressure: 29.68 "Hg

Humidity: 43%

Dew Point: 64 °F

Location of Abu DhabiLocation

Past Weather in Abu Dhabi — Graph

°F

Abu Dhabi Temperature Yesterday

Maximum temperature yesterday: 88 °F (at 1:00 pm)
Minimum temperature yesterday: 79 °F (at 5:00 am)
Average temperature yesterday: 83 °F

High & Low Weather Summary for the Past Weeks

 TemperatureHumidityPressure
High106 °F (Apr 13, 2:00 pm)94% (Apr 17, 4:00 am)29.95 "Hg (Apr 17, 4:00 am)
Low75 °F (Apr 17, 6:00 am)11% (Apr 13, 2:00 pm)29.68 "Hg (Apr 15, 3:00 pm)
Average86 °F50%29.81 "Hg
* Reported Apr 8 4:00 pm — Apr 23 4:00 pm, Abu Dhabi, Weather by CustomWeather, © 2017

Note: Actual official high and low records may vary slightly from our data, if they occured in-between our weather recording intervals... More about our weather records

Advertising

Abu Dhabi Weather History for the Previous 24 Hours

Scroll right to see more
 ConditionsComfort  
Time TempWeatherWind HumidityBarometerVisibility
4:00 pm
Sun, Apr 23
93 °FPassing clouds.12 mph36%29.71 "HgN/A
3:00 pm95 °FSunny.12 mph28%29.71 "Hg10 mi
2:00 pm99 °FPassing clouds.9 mph17%29.74 "HgN/A
1:00 pm95 °FPassing clouds.6 mph30%29.77 "HgN/A
12:00 pm91 °FClear.3 mph49%29.80 "Hg6 mi
11:00 am84 °FClear.6 mph70%29.80 "Hg6 mi
10:00 am81 °FClear.7 mph79%29.83 "Hg5 mi
9:00 am79 °FClear.7 mph79%29.83 "Hg4 mi
8:00 am79 °FClear.5 mph89%29.80 "Hg6 mi
7:00 am77 °FClear.2 mph89%29.77 "Hg6 mi
6:00 am77 °FClear.2 mph89%29.74 "Hg6 mi
5:00 am77 °FClear.3 mph89%29.74 "Hg6 mi
4:00 am79 °FClear.5 mph89%29.71 "Hg6 mi
3:00 am79 °FPassing clouds.6 mph89%29.74 "HgN/A
2:00 am79 °FClear.6 mph84%29.74 "Hg10 mi
1:00 am79 °FClear.5 mph84%29.74 "Hg10 mi
12:00 am79 °FPassing clouds.5 mph84%29.77 "HgN/A
10:00 pm
Sat, Apr 22
79 °FPassing clouds.6 mph84%29.77 "HgN/A
9:00 pm81 °FClear.6 mph79%29.74 "Hg10 mi
8:00 pm81 °FClear.6 mph74%29.74 "Hg10 mi
7:00 pm82 °FClear.7 mph70%29.71 "Hg10 mi
6:00 pm84 °FSunny.10 mph62%29.68 "Hg10 mi
Weather by CustomWeather, © 2017

See weather overviewHow to use our weather pages